Tizayuca Airport

Jump to: basic info | weather | runways | comments

Related pages: nearby airports | nearby navaids | notams | map

Basic information (top)

Codes: MM28
Location: lon 19.874001, lat -98.943604, elev 7,600 ft / 2,316 m msl
Status: small_airport

Weather (top)

Current conditions for Licenciado Benito Juarez International Airport 27nm (50km) SSW (rec'd 2015/03/01 03:44Z):

MMMX 010344Z 18003KT 12SM SKC 18/02 A3032 NOSIG

Airport forecast for Licenciado Benito Juarez International Airport 27nm (50km) SSW (rec'd 2015/02/28 06:18Z):

TAF MMMX 280512Z 2806/0112 10005KT P6SM SKC TX24/2821Z TN10/2812Z 
     FM281800 18012KT P6SM BKN250 
     FM010600 12005KT P6SM SKC

Runways (top)

01/19: 4,235 x 80 ft (1,291 x 24 m) — paved — not lighted

Latest comments (top)

No comments yet for Tizayuca Airport

More... (top)

See also NOTAMs and nearby airports and navaids, or visit the Tizayuca Airport page at the main OurAirports website..